Change the Weather History Date:

Sunday, May 13, 2012

  Actual Average Record
Temperature  
Mean Temperature 39 °F -  
Max Temperature 50 °F 53 °F 67 °F (1988)
Min Temperature 27 °F 27 °F 14 °F (2000)
Degree Days  
Heating Degree Days 26 25  
Month to date heating degree days 311 351  
Since 1 July heating degree days 9801 10352  
Cooling Degree Days 0 0  
Month to date cooling degree days 0 0  
Year to date cooling degree days 0 0  
Moisture  
Dew Point 28 °F    
Average Humidity 69    
Maximum Humidity 100    
Minimum Humidity 37    
Precipitation  
Precipitation T in 0.02 in 0.80 in (2008)
Month to date precipitation 0.40 0.37  
Year to date precipitation 3.57 3.70  
Snow  
Snow 0.00 in - - ()
Month to date snowfall 0.0  
Snow Depth 0.00 in    
Sea Level Pressure  
Sea Level Pressure 30.20 in    
Wind  
Wind Speed 7 mph (ESE)    
Max Wind Speed 31 mph    
Max Gust Speed 43 mph    
Visibility 10 miles    
Events Rain    
T = Trace of Precipitation, MM = Missing Value Source: NWS Daily Summary

Daily Weather History Graph

Daily Weather History Graph

Search for Another Location

Airport or City:

Trip Planner

Search our weather history database for the weather conditions in past years. The results will help you decide how hot, cold, wet, or windy it might be!

Date:

Astronomy

May. 13, 2012 Rise Set
Actual Time 5:53 AM MDT 8:10 PM MDT
Civil Twilight 5:23 AM MDT 8:40 PM MDT
Nautical Twilight 4:46 AM MDT 9:17 PM MDT
Astronomical Twilight 4:05 AM MDT 9:58 PM MDT
Moon 1:57 AM MDT (5/13) 1:37 PM MDT (5/13)
Length of Visible Light 15h 17m
Length of Day
14h 17m
Last Quarter, 41% of the Moon is Illuminated
May 13
Last Quarter
May 20
New
May 28
First Quarter
Jun 4
Full
Jun 11
Last Quarter

Hourly Weather History & Observations

Time (MDT) Temp. Windchill Dew Point Humidity Pressure Visibility Wind Dir Wind Speed Gust Speed Precip Events Conditions
12:53 AM 33.1 °F 30.0 °F 30.0 °F 89% 30.12 in 10.0 mi ESE 3.5 mph - N/A   Mostly Cloudy
1:05 AM 33.8 °F 29.6 °F 30.2 °F 87% 30.40 in 10.0 mi SSE 4.6 mph - N/A   Scattered Clouds
1:53 AM 30.0 °F - 28.9 °F 96% 30.12 in 10.0 mi Calm Calm - N/A   Partly Cloudy
2:12 AM 30.2 °F 25.4 °F 30.2 °F 100% 30.40 in 10.0 mi South 4.6 mph - N/A   Scattered Clouds
2:16 AM 32.0 °F 28.7 °F 30.2 °F 93% 30.40 in 10.0 mi SSE 3.5 mph - N/A   Mostly Cloudy
2:53 AM 32.0 °F - 32.0 °F 100% 30.10 in 8.0 mi Calm Calm - N/A   Overcast
3:32 AM 32.0 °F 28.7 °F 30.2 °F 93% 30.40 in 10.0 mi Variable 3.5 mph - N/A   Overcast
3:50 AM 32.0 °F 28.7 °F 30.2 °F 93% 30.39 in 10.0 mi East 3.5 mph - N/A   Overcast
3:53 AM 32.0 °F 28.7 °F 30.0 °F 92% 30.07 in 10.0 mi ESE 3.5 mph - N/A   Overcast
4:07 AM 32.0 °F 28.7 °F 30.2 °F 93% 30.39 in 10.0 mi SE 3.5 mph - N/A   Overcast
4:53 AM 33.1 °F - 30.9 °F 92% 30.05 in 10.0 mi Calm Calm - N/A   Overcast
5:53 AM 33.1 °F - 30.9 °F 92% 30.06 in 10.0 mi Calm Calm - N/A   Overcast
6:53 AM 34.0 °F - 30.9 °F 89% 30.10 in 10.0 mi Calm Calm - N/A   Overcast
7:53 AM 36.0 °F 33.3 °F 30.0 °F 79% 30.09 in 10.0 mi SSW 3.5 mph - N/A   Overcast
8:53 AM 37.9 °F - 28.9 °F 70% 30.10 in 10.0 mi Calm Calm - N/A   Scattered Clouds
9:53 AM 42.1 °F 40.2 °F 28.0 °F 58% 30.08 in 10.0 mi SSW 3.5 mph - N/A   Clear
10:53 AM 45.0 °F - 17.1 °F 33% 30.07 in 10.0 mi Calm Calm - 0.00 in Rain Light Rain
11:53 AM 43.0 °F 40.3 °F 18.0 °F 37% 30.09 in 10.0 mi SSE 4.6 mph - 0.00 in Rain Light Rain
12:53 PM 48.9 °F - 17.1 °F 28% 30.03 in 10.0 mi ENE 17.3 mph 21.9 mph 0.00 in   Mostly Cloudy
1:53 PM 42.1 °F 31.5 °F 23.0 °F 47% 30.14 in 10.0 mi NNE 28.8 mph 39.1 mph N/A   Mostly Cloudy
2:53 PM 41.0 °F 30.9 °F 27.0 °F 57% 30.16 in 10.0 mi NE 24.2 mph 32.2 mph 0.00 in   Scattered Clouds
3:53 PM 44.1 °F 36.5 °F 21.0 °F 40% 30.11 in 10.0 mi NE 17.3 mph 24.2 mph N/A   Scattered Clouds
4:53 PM 44.1 °F 37.1 °F 19.9 °F 38% 30.09 in 10.0 mi NE 15.0 mph 24.2 mph N/A   Overcast
5:53 PM 44.1 °F 39.0 °F 23.0 °F 43% 30.10 in 10.0 mi ENE 9.2 mph - N/A   Scattered Clouds
6:53 PM 39.0 °F 30.6 °F 30.9 °F 73% 30.15 in 10.0 mi SW 15.0 mph 20.7 mph N/A   Overcast
7:53 PM 36.0 °F 29.6 °F 30.9 °F 82% 30.18 in 10.0 mi WSW 8.1 mph - N/A   Overcast
8:53 PM 33.1 °F 28.7 °F 30.9 °F 92% 30.19 in 10.0 mi South 4.6 mph - N/A   Clear
9:53 PM 28.9 °F 25.2 °F 28.0 °F 96% 30.20 in 10.0 mi ENE 3.5 mph - N/A   Clear
10:07 PM 30.2 °F - 28.4 °F 93% 30.44 in 10.0 mi Calm Calm - N/A   Scattered Clouds
10:15 PM 30.2 °F 25.4 °F 28.4 °F 93% 30.45 in 10.0 mi ENE 4.6 mph - N/A   Mostly Cloudy
10:40 PM 30.2 °F 25.4 °F 28.4 °F 93% 30.45 in 10.0 mi NE 4.6 mph - N/A   Scattered Clouds
10:53 PM 30.0 °F 26.5 °F 28.9 °F 96% 30.17 in 10.0 mi ENE 3.5 mph - N/A   Partly Cloudy
11:53 PM 28.0 °F 24.2 °F 27.0 °F 96% 30.20 in 10.0 mi ENE 3.5 mph - N/A   Clear